Hourly Weather Washington

Today, 22 January, Friday

Time Temperature Precipitation Wind Pressure Humidity
00:00 +1°C° 0 mm 3 mps 748 mmHg 71%
01:00 0°C° 0 mm 3 mps 748 mmHg 72%
02:00 0°C° 0 mm 3 mps 748 mmHg 73%
03:00 0°C° 0 mm 3 mps 748 mmHg 74%
04:00 -1°C° 0 mm 2 mps 748 mmHg 75%
05:00 -1°C° 0 mm 2 mps 748 mmHg 75%
06:00 -1°C° 0 mm 2 mps 748 mmHg 75%
07:00 -1°C° 0 mm 2 mps 749 mmHg 76%
08:00 +1°C° 0 mm 3 mps 749 mmHg 69%
09:00 +3°C° 0 mm 3 mps 749 mmHg 63%
10:00 +4°C° 0 mm 4 mps 750 mmHg 57%
11:00 +5°C° 0 mm 4 mps 750 mmHg 53%
12:00 +6°C° 0 mm 5 mps 750 mmHg 48%
13:00 +6°C° 0 mm 5 mps 750 mmHg 44%
14:00 +6°C° 0 mm 5 mps 750 mmHg 45%
15:00 +5°C° 0 mm 5 mps 750 mmHg 47%
16:00 +3°C° 0 mm 5 mps 751 mmHg 48%
17:00 +3°C° 0 mm 4 mps 751 mmHg 53%
18:00 0°C° 0 mm 4 mps 752 mmHg 58%
19:00 -1°C° 0 mm 4 mps 753 mmHg 63%
20:00 -2°C° 0 mm 4 mps 754 mmHg 64%
21:00 -3°C° 0 mm 4 mps 754 mmHg 66%
22:00 -4°C° 0 mm 4 mps 755 mmHg 67%
23:00 -4°C° 0 mm 4 mps 755 mmHg 66%

Tomorrow, 23 January, Saturday

Time Temperature Precipitation Wind Pressure Humidity
00:00 -4°C° 0 mm 4 mps 755 mmHg 64%
01:00 -5°C° 0 mm 4 mps 756 mmHg 63%
02:00 -5°C° 0 mm 3 mps 756 mmHg 62%
03:00 -5°C° 0 mm 3 mps 756 mmHg 62%
04:00 -6°C° 0 mm 3 mps 757 mmHg 61%
05:00 -6°C° 0 mm 3 mps 757 mmHg 60%
06:00 -6°C° 0 mm 3 mps 758 mmHg 59%
07:00 -7°C° 0 mm 4 mps 758 mmHg 58%
08:00 -6°C° 0 mm 5 mps 759 mmHg 53%
09:00 -6°C° 0 mm 5 mps 759 mmHg 48%
10:00 -5°C° 0 mm 6 mps 760 mmHg 43%
11:00 -4°C° 0 mm 6 mps 760 mmHg 40%
12:00 -4°C° 0 mm 6 mps 759 mmHg 37%
13:00 -3°C° 0 mm 6 mps 759 mmHg 33%
14:00 -3°C° 0 mm 6 mps 759 mmHg 34%
15:00 -3°C° 0 mm 6 mps 759 mmHg 35%
16:00 -3°C° 0 mm 6 mps 760 mmHg 36%
17:00 -4°C° 0 mm 5 mps 760 mmHg 41%
18:00 -4°C° 0 mm 4 mps 761 mmHg 46%
19:00 -5°C° 0 mm 4 mps 761 mmHg 51%
20:00 -5°C° 0 mm 4 mps 762 mmHg 53%
21:00 -5°C° 0 mm 4 mps 762 mmHg 55%
22:00 -5°C° 0 mm 4 mps 762 mmHg 58%
23:00 -7°C° 0 mm 4 mps 762 mmHg 57%

Day after tomorrow, 24 January, Sunday

Time Temperature Precipitation Wind Pressure Humidity
00:00 -7°C° 0 mm 4 mps 762 mmHg 57%
01:00 -6°C° 0 mm 3 mps 762 mmHg 57%
02:00 -6°C° 0 mm 3 mps 762 mmHg 57%
03:00 -6°C° 0 mm 3 mps 761 mmHg 58%
04:00 -6°C° 0 mm 3 mps 761 mmHg 58%
05:00 -5°C° 0 mm 2 mps 761 mmHg 58%
06:00 -6°C° 0 mm 2 mps 761 mmHg 58%
07:00 -4°C° 0 mm 1 mps 761 mmHg 58%
08:00 -2°C° 0 mm 1 mps 761 mmHg 54%
09:00 -1°C° 0 mm 1 mps 761 mmHg 49%
10:00 0°C° 0 mm 1 mps 761 mmHg 44%
11:00 +1°C° 0 mm 1 mps 760 mmHg 41%
12:00 +2°C° 0 mm 1 mps 759 mmHg 39%
13:00 +3°C° 0 mm 1 mps 758 mmHg 36%
14:00 +4°C° 0 mm 1 mps 758 mmHg 38%
15:00 +4°C° 0 mm 1 mps 757 mmHg 39%
16:00 +4°C° 0 mm 1 mps 757 mmHg 41%
17:00 +3°C° 0 mm 1 mps 757 mmHg 45%
18:00 +2°C° 0 mm 1 mps 757 mmHg 49%
19:00 +1°C° 0 mm 1 mps 757 mmHg 53%
20:00 +1°C° 0 mm 1 mps 757 mmHg 54%
21:00 0°C° 0 mm 0 mps 757 mmHg 54%
22:00 0°C° 0 mm 0 mps 757 mmHg 55%
23:00 0°C° 0 mm 0 mps 756 mmHg 55%

25 January, Monday

Time Temperature Precipitation Wind Pressure Humidity
00:00 +1°C° 0 mm 1 mps 756 mmHg 55%
01:00 +1°C° 0 mm 1 mps 756 mmHg 55%
02:00 +1°C° 0 mm 1 mps 755 mmHg 55%
03:00 +1°C° 0 mm 1 mps 755 mmHg 56%
04:00 +1°C° 0 mm 1 mps 755 mmHg 56%
05:00 +1°C° 0 mm 1 mps 755 mmHg 58%
06:00 +1°C° 0 mm 1 mps 755 mmHg 59%
07:00 +1°C° 0 mm 1 mps 755 mmHg 60%
08:00 +2°C° 0 mm 1 mps 755 mmHg 59%
09:00 +1°C° 0 mm 2 mps 756 mmHg 58%
10:00 +1°C° 0 mm 2 mps 756 mmHg 57%
11:00 +1°C° 0 mm 2 mps 755 mmHg 58%
12:00 +2°C° 0 mm 1 mps 755 mmHg 59%
13:00 +2°C° 0 mm 1 mps 754 mmHg 60%
14:00 +1°C° 0.2 mm 2 mps 754 mmHg 68%
15:00 -1°C° 0.2 mm 2 mps 753 mmHg 76%
16:00 -1°C° 0.2 mm 2 mps 753 mmHg 84%
17:00 -1°C° 0.6 mm 2 mps 752 mmHg 87%
18:00 -1°C° 0.6 mm 2 mps 752 mmHg 90%
19:00 +1°C° 0.6 mm 1 mps 752 mmHg 94%
20:00 -1°C° 0.6 mm 2 mps 752 mmHg 95%
21:00 -1°C° 0.6 mm 3 mps 752 mmHg 95%
22:00 -2°C° 0.6 mm 4 mps 752 mmHg 96%
23:00 -3°C° 0.4 mm 4 mps 751 mmHg 95%

26 January, Tuesday

Time Temperature Precipitation Wind Pressure Humidity
00:00 -3°C° 0.4 mm 4 mps 751 mmHg 94%
01:00 -3°C° 0.4 mm 4 mps 750 mmHg 93%
02:00 -3°C° 1.1 mm 4 mps 750 mmHg 94%
03:00 -2°C° 1.1 mm 3 mps 749 mmHg 95%
04:00 -2°C° 1.1 mm 3 mps 749 mmHg 96%
05:00 -4°C° 1.7 mm 3 mps 749 mmHg 96%
06:00 -4°C° 1.7 mm 4 mps 749 mmHg 96%
07:00 -4°C° 1.7 mm 4 mps 749 mmHg 96%
08:00 -4°C° 1.8 mm 4 mps 750 mmHg 96%
09:00 -4°C° 1.8 mm 4 mps 751 mmHg 96%
10:00 -4°C° 1.8 mm 4 mps 751 mmHg 96%
11:00 -3°C° 0.5 mm 4 mps 752 mmHg 96%
12:00 -3°C° 0.5 mm 4 mps 752 mmHg 96%
13:00 -1°C° 0.5 mm 3 mps 753 mmHg 96%
14:00 -1°C° 0.1 mm 3 mps 753 mmHg 96%
15:00 -1°C° 0.1 mm 3 mps 754 mmHg 95%
16:00 -1°C° 0.1 mm 3 mps 755 mmHg 95%
17:00 -2°C° 0 mm 2 mps 756 mmHg 94%
18:00 -3°C° 0 mm 2 mps 757 mmHg 94%
19:00 -4°C° 0 mm 2 mps 758 mmHg 93%
20:00 -2°C° 0 mm 1 mps 758 mmHg 93%
21:00 -3°C° 0 mm 1 mps 759 mmHg 93%
22:00 -3°C° 0 mm 1 mps 759 mmHg 92%
23:00 -4°C° 0 mm 1 mps 759 mmHg 92%

27 January, Wednesday

Time Temperature Precipitation Wind Pressure Humidity
00:00 -4°C° 0 mm 1 mps 760 mmHg 92%
01:00 -4°C° 0 mm 1 mps 760 mmHg 91%
02:00 -6°C° 0 mm 1 mps 760 mmHg 91%
03:00 -6°C° 0 mm 1 mps 760 mmHg 91%
04:00 -7°C° 0 mm 1 mps 760 mmHg 91%
05:00 -7°C° 0 mm 1 mps 761 mmHg 91%
06:00 -7°C° 0 mm 1 mps 761 mmHg 91%
07:00 -7°C° 0 mm 1 mps 761 mmHg 92%
08:00 -6°C° 0 mm 1 mps 761 mmHg 90%
09:00 -3°C° 0 mm 1 mps 762 mmHg 88%
10:00 -2°C° 0 mm 1 mps 762 mmHg 87%
11:00 -1°C° 0 mm 1 mps 762 mmHg 87%
12:00 0°C° 0 mm 1 mps 761 mmHg 87%
13:00 +1°C° 0 mm 1 mps 761 mmHg 87%
14:00 +1°C° 0 mm 1 mps 760 mmHg 88%
15:00 +1°C° 0 mm 1 mps 760 mmHg 88%
16:00 +1°C° 0 mm 1 mps 759 mmHg 89%
17:00 -1°C° 0 mm 1 mps 759 mmHg 90%
18:00 -2°C° 0 mm 1 mps 760 mmHg 92%
19:00 -3°C° 0 mm 1 mps 760 mmHg 93%
20:00 -5°C° 0 mm 2 mps 759 mmHg 93%
21:00 -5°C° 0 mm 2 mps 759 mmHg 92%
22:00 -5°C° 0 mm 2 mps 759 mmHg 92%
23:00 -6°C° 0.1 mm 3 mps 759 mmHg 91%
Show more